N5YHM-13 Weather Reports


time (UTC)temp
F
wind
direction
speed
knots
gust
knots
rain 1hr
in
rain 24hr
in
rain mn
in
humidity
%
barometer
mb
20260504215841 75 223 0.9 1.7 0.00 0.00 0.00 47 1017.0
20260504215337 75 277 0.0 1.7 0.00 0.00 0.00 47 1016.9
20260504214834 75 163 0.0 0.9 0.00 0.00 0.00 47 1016.8
20260504214331 75 224 0.0 0.0 0.00 0.00 0.00 47 1016.9
20260504213827 75 224 0.9 0.9 0.00 0.00 0.00 45 1017.0
20260504213323 76 224 0.0 0.9 0.00 0.00 0.00 46 1016.9
20260504212821 76 203 0.9 0.9 0.00 0.00 0.00 46 1016.9
20260504212317 76 202 0.0 2.6 0.00 0.00 0.00 48 1017.0
20260504211815 75 205 0.9 1.7 0.00 0.00 0.00 49 1017.0
20260504211311 75 205 0.9 0.9 0.00 0.00 0.00 48 1017.3
20260504210808 76 204 0.9 0.9 0.00 0.00 0.00 48 1017.1
20260504210305 76 204 0.0 2.6 0.00 0.00 0.00 48 1017.1
20260504205803 76 234 0.9 1.7 0.00 0.00 0.00 48 1017.3
20260504205300 76 246 0.0 1.7 0.00 0.00 0.00 48 1016.9
20260504204758 76 227 0.0 0.0 0.00 0.00 0.00 47 1017.3
20260504204256 76 167 0.0 0.9 0.00 0.00 0.00 50 1017.3
20260504203755 76 167 0.0 0.0 0.00 0.00 0.00 48 1017.3
20260504203253 76 177 2.6 3.5 0.00 0.00 0.00 47 1017.2
20260504202752 76 247 0.0 0.9 0.00 0.00 0.00 48 1017.6
20260504202250 76 251 0.0 0.9 0.00 0.00 0.00 46 1017.3
20260504201747 76 158 0.0 2.6 0.00 0.00 0.00 46 1017.6
20260504201244 76 159 0.0 3.5 0.00 0.00 0.00 45 1017.6
20260504200742 76 166 0.0 1.7 0.00 0.00 0.00 45 1017.9
20260504200237 76 166 1.7 2.6 0.00 0.00 0.00 45 1018.0
20260504195734 76 228 0.9 0.9 0.00 0.00 0.00 46 1017.9
20260504195230 78 219 0.9 1.7 0.00 0.00 0.00 43 1018.2
20260504194728 77 229 0.0 0.9 0.00 0.00 0.00 47 1018.3
20260504194223 76 250 0.0 0.9 0.00 0.00 0.00 46 1018.2
20260504193720 76 206 0.9 0.9 0.00 0.00 0.00 46 1018.5
20260504193218 76 206 0.9 0.9 0.00 0.00 0.00 44 1018.6
20260504192716 78 202 0.0 2.6 0.00 0.00 0.00 43 1018.5
20260504192213 77 219 0.0 0.9 0.00 0.00 0.00 45 1018.7
20260504191712 77 229 0.0 1.7 0.00 0.00 0.00 44 1018.7
20260504191208 78 230 0.0 0.9 0.00 0.00 0.00 45 1018.7
20260504190704 76 230 0.0 0.9 0.00 0.00 0.00 45 1018.5
20260504190200 77 258 1.7 1.7 0.00 0.00 0.00 46 1018.6
20260504185657 77 227 0.9 1.7 0.00 0.00 0.00 45 1018.6
20260504185153 77 196 0.0 0.0 0.00 0.00 0.00 45 1018.8
20260504184650 76 226 0.9 1.7 0.00 0.00 0.00 46 1018.9
20260504184145 77 227 0.9 1.7 0.00 0.00 0.00 45 1018.8
20260504183642 76 192 0.9 1.7 0.00 0.00 0.00 46 1018.9
20260504183139 76 250 0.9 2.6 0.00 0.00 0.00 46 1018.7
20260504182637 77 233 0.9 2.6 0.00 0.00 0.00 45 1019.0
20260504182134 76 207 0.0 0.9 0.00 0.00 0.00 46 1019.1
20260504181632 77 235 0.0 0.9 0.00 0.00 0.00 45 1019.1
20260504181129 77 219 0.0 0.9 0.00 0.00 0.00 46 1019.0
20260504180628 76 219 0.9 0.9 0.00 0.00 0.00 47 1019.0
20260504180127 75 211 0.0 1.7 0.00 0.00 0.00 47 1019.2
20260504175624 75 185 0.0 2.6 0.00 0.00 0.00 43 1019.3
20260504175120 76 270 0.9 1.7 0.00 0.00 0.00 47 1019.2
20260504174618 76 247 0.9 1.7 0.00 0.00 0.00 46 1019.5
20260504174114 75 231 0.0 0.9 0.00 0.00 0.00 46 1019.4
20260504173611 75 232 0.0 0.9 0.00 0.00 0.00 44 1019.6
20260504173109 75 216 0.0 0.9 0.00 0.00 0.00 49 1019.3
20260504172605 75 218 0.9 1.7 0.00 0.00 0.00 46 1019.3
20260504172102 75 217 0.0 1.7 0.00 0.00 0.00 48 1019.2
20260504171558 75 216 0.0 0.9 0.00 0.00 0.00 49 1019.0
20260504171055 75 246 0.9 0.9 0.00 0.00 0.00 45 1019.3
20260504170551 75 211 0.9 1.7 0.00 0.00 0.00 45 1019.4
20260504150924 70 249 0.0 0.0 0.00 0.00 0.00 63 1020.1
20260504150421 70 264 0.0 1.7 0.00 0.00 0.00 66 1020.1
20260504140846 65 221 0.0 0.0 0.00 0.00 0.00 77 1020.0
20260504140343 65 221 0.0 0.0 0.00 0.00 0.00 78 1020.1
20260504130811 57 221 0.0 0.0 0.00 0.00 0.00 98 1020.1
20260504130307 56 221 0.0 0.0 0.00 0.00 0.00 98 1020.2
20260504120231 51 220 0.0 0.0 0.00 0.00 0.00 99 1019.6
20260504110658 50 220 0.0 0.0 0.00 0.00 0.00 98 1019.5
20260504110154 50 220 0.0 0.0 0.00 0.00 0.00 98 1019.4
20260504100119 51 220 0.0 0.0 0.00 0.00 0.00 98 1019.5
20260504081512 53 220 0.0 0.0 0.00 0.00 0.00 98 1019.7
20260504081007 53 220 0.0 0.0 0.00 0.00 0.00 98 1019.8
20260504080504 53 221 0.0 0.0 0.00 0.00 0.00 98 1019.8
20260504050305 56 221 0.0 0.0 0.00 0.00 0.00 97 1020.7
20260504045802 56 221 0.0 0.0 0.00 2.65 2.65 97 1020.8
20260504045257 56 221 0.0 0.0 0.00 2.65 2.65 96 1020.8
20260504044755 56 221 0.0 0.0 0.00 2.65 2.65 96 1020.9
20260504044252 56 221 0.0 0.0 0.00 2.65 2.65 96 1021.0
20260504043749 56 221 0.0 0.0 0.00 2.65 2.65 96 1020.8
20260504043246 56 221 0.0 0.0 0.00 2.65 2.65 96 1020.8
20260504042744 56 221 0.0 0.0 0.00 2.65 2.65 96 1020.9
20260504042240 56 221 0.0 0.0 0.00 2.65 2.65 96 1020.9
20260504041736 56 221 0.0 0.0 0.00 2.65 2.65 96 1020.8
20260504041232 56 221 0.0 0.0 0.00 2.65 2.65 95 1021.0
20260504040729 57 221 0.0 0.0 0.00 2.65 2.65 95 1020.7
20260504040226 57 221 0.0 0.0 0.00 2.65 2.65 95 1021.1
20260504035722 57 221 0.0 0.0 0.00 2.65 2.65 95 1021.0
20260504035220 57 221 0.0 0.0 0.00 2.65 2.65 95 1020.9
20260504034717 57 221 0.0 0.0 0.00 2.65 2.65 95 1020.8
20260504034213 57 221 0.0 0.0 0.00 2.65 2.65 94 1020.8
20260504033706 58 221 0.0 0.0 0.00 2.65 2.65 94 1021.0
20260504033203 58 221 0.0 0.0 0.00 2.65 2.65 93 1020.9
20260504032700 58 221 0.0 0.0 0.00 2.65 2.65 93 1020.8
20260504032157 58 221 0.0 0.0 0.00 2.65 2.65 93 1020.9
20260504031654 58 221 0.0 0.0 0.00 2.65 2.65 93 1021.0
20260504031150 58 221 0.0 0.0 0.00 2.65 2.65 92 1020.9
20260504030647 58 221 0.0 0.0 0.00 2.65 2.65 92 1021.0
20260504030143 59 221 0.0 0.0 0.00 2.65 2.65 91 1020.8
20260504025640 59 221 0.0 0.0 0.00 2.65 2.65 91 1021.0
20260504025137 59 221 0.0 0.0 0.00 2.65 2.65 90 1020.7
20260504024634 59 221 0.0 0.0 0.00 2.65 2.65 89 1021.0
20260504024130 60 221 0.0 0.0 0.00 2.65 2.65 88 1020.8
20260504023628 60 221 0.0 0.0 0.00 2.65 2.65 89 1020.9
20260504023124 60 221 0.0 0.0 0.00 2.65 2.65 89 1020.6
20260504022620 60 221 0.0 0.0 0.00 2.65 2.65 88 1020.8
20260504022115 60 221 0.0 0.0 0.00 2.65 2.65 87 1020.7
20260504021614 61 221 0.0 0.0 0.00 2.65 2.65 85 1020.5
20260504021110 61 221 0.0 0.0 0.00 2.65 2.65 84 1020.6
20260504020607 61 221 0.0 0.0 0.00 2.65 2.65 84 1020.4
20260504015600 62 221 0.0 0.0 0.00 2.65 2.65 82 1020.0
20260504015055 62 221 0.0 0.0 0.00 2.65 2.65 81 1020.1
20260504014552 63 221 0.0 0.0 0.00 2.65 2.65 80 1020.2
20260504014044 63 221 0.0 0.0 0.00 2.65 2.65 79 1020.1
20260504013541 63 221 0.0 0.0 0.00 2.65 2.65 79 1020.2
20260504013038 64 221 0.0 0.0 0.00 2.65 2.65 78 1019.9
20260504012535 64 221 0.0 0.0 0.00 2.65 2.65 78 1020.1
20260504012027 64 221 0.0 0.0 0.00 2.65 2.65 77 1020.0
20260504011523 64 221 0.0 0.0 0.00 2.65 2.65 76 1020.1
20260504011020 65 221 0.0 0.0 0.00 2.65 2.65 74 1019.8
20260504010515 65 221 0.0 0.0 0.00 2.65 2.65 74 1019.9
20260504010011 65 221 0.0 0.0 0.00 2.65 2.65 73 1019.7
20260504005509 66 221 0.0 0.0 0.00 2.65 2.65 72 1019.7
20260504005006 66 221 0.0 0.0 0.00 2.65 2.65 72 1019.8
20260504004504 67 221 0.0 0.0 0.00 2.65 2.65 69 1020.0
20260504004000 67 221 0.0 0.0 0.00 2.65 2.65 70 1019.8
20260504003456 67 221 0.0 0.0 0.00 2.65 2.65 68 1019.7
20260504002954 68 221 0.0 0.0 0.00 2.65 2.65 67 1019.5
20260504002450 68 221 0.0 0.0 0.00 2.65 2.65 66 1019.7
20260504001948 69 221 0.0 0.0 0.00 2.65 2.65 64 1019.6
20260504001445 69 221 0.0 0.0 0.00 2.65 2.65 62 1019.8
20260504000942 70 221 0.0 0.0 0.00 2.65 2.65 61 1019.8
20260504000439 70 221 0.0 0.0 0.00 2.65 2.65 56 1019.6
20260503235936 71 221 0.0 0.0 0.00 2.65 2.65 58 1019.6
20260503235434 71 221 0.0 0.0 0.00 2.65 2.65 54 1019.6
20260503234931 71 221 0.0 0.0 0.00 2.65 2.65 56 1019.7
20260503234428 72 221 0.0 0.0 0.00 2.65 2.65 54 1019.8
20260503233926 72 221 0.0 0.0 0.00 2.65 2.65 55 1019.6
20260503233423 73 221 0.0 0.9 0.00 2.65 2.65 52 1019.8
20260503232919 73 221 0.0 0.0 0.00 2.65 2.65 52 1019.8
20260503232416 73 221 0.0 0.0 0.00 2.65 2.65 52 1019.9
20260503231914 73 221 0.0 0.0 0.00 2.65 2.65 51 1019.8
20260503231411 73 221 0.0 0.0 0.00 2.65 2.65 49 1020.0
20260503230907 73 221 0.0 0.0 0.00 2.65 2.65 49 1019.7
20260503230404 73 221 0.0 0.0 0.00 2.65 2.65 49 1019.8
20260503225902 73 221 0.0 0.0 0.00 2.65 2.65 49 1019.9
20260503225357 73 221 0.0 0.0 0.00 2.65 2.65 50 1019.7
20260503224854 73 221 0.0 0.0 0.00 2.65 2.65 49 1019.9
20260503224351 73 222 0.0 0.9 0.00 2.65 2.65 49 1020.0
20260503223849 73 227 0.9 0.9 0.00 2.65 2.65 48 1020.0
20260503223346 73 232 0.0 0.0 0.00 2.65 2.65 48 1019.9
20260503222842 73 225 0.0 0.0 0.00 2.65 2.65 49 1019.8
20260503222340 74 228 0.0 0.0 0.00 2.65 2.65 49 1019.9
20260503221838 74 238 0.0 0.0 0.00 2.65 2.65 47 1020.0
20260503221337 74 243 0.0 0.9 0.00 2.65 2.65 48 1019.9
20260503220832 74 232 0.0 1.7 0.00 2.65 2.65 49 1020.1
20260503220329 74 260 0.0 1.7 0.00 2.65 2.65 48 1020.3